CCA2793 ZBAA-ZGSZ

Flight info

Callsign CCA2793
Flight time 2h 47m
Altitude 34100
Route RUSDO W45 IPLEV B458 DADGA W37 OMBEB R473 NOLON W90 POU W7 SAREX
Aircraft B77W/H-SDE1E2E3FGHIJ2J3J4J5M1RWXY/LB1D1

Departure

Time 2026-05-05 03:02
Airport Beijing Capital International Airport (ZBAA)

Arrival

Time 2026-05-05 05:49
Airport Shenzhen Bao'an International Airport (ZGSZ)
Time Latitude Longitude Altitude Speed Heading
2026-05-05 02:34 40.07081 116.60514 130 ft 0 kts 84°
2026-05-05 02:44 40.07079 116.60498 130 ft 2 kts 84°
2026-05-05 02:45 40.07078 116.60478 130 ft 2 kts 84°
2026-05-05 02:45 40.07076 116.60459 130 ft 2 kts 84°
2026-05-05 02:45 40.07074 116.60439 130 ft 2 kts 87°
2026-05-05 02:45 40.07076 116.60420 130 ft 2 kts 112°
2026-05-05 02:46 40.07083 116.60404 130 ft 2 kts 133°
2026-05-05 02:46 40.07095 116.60392 130 ft 2 kts 153°
2026-05-05 02:46 40.07108 116.60386 130 ft 2 kts 173°
2026-05-05 02:46 40.07123 116.60384 130 ft 2 kts 176°
2026-05-05 02:47 40.07137 116.60383 130 ft 0 kts 174°
2026-05-05 02:47 40.07138 116.60383 130 ft 0 kts 174°
2026-05-05 02:49 40.07133 116.60384 130 ft 1 kts 173°
2026-05-05 02:49 40.07115 116.60386 130 ft 3 kts 173°
2026-05-05 02:50 40.07085 116.60390 130 ft 5 kts 173°
2026-05-05 02:50 40.07041 116.60397 130 ft 7 kts 173°
2026-05-05 02:50 40.06987 116.60407 130 ft 8 kts 173°
2026-05-05 02:50 40.06936 116.60414 130 ft 5 kts 173°
2026-05-05 02:51 40.06898 116.60407 130 ft 6 kts 212°
2026-05-05 02:51 40.06879 116.60353 130 ft 7 kts 258°
2026-05-05 02:51 40.06869 116.60278 130 ft 9 kts 262°
2026-05-05 02:51 40.06865 116.60233 130 ft 1 kts 262°
2026-05-05 02:52 40.06862 116.60210 130 ft 3 kts 256°
2026-05-05 02:52 40.06845 116.60181 130 ft 4 kts 212°
2026-05-05 02:52 40.06808 116.60173 130 ft 5 kts 182°
2026-05-05 02:52 40.06777 116.60141 130 ft 6 kts 242°
2026-05-05 02:53 40.06748 116.60091 130 ft 7 kts 222°
2026-05-05 02:53 40.06699 116.60070 130 ft 7 kts 177°
2026-05-05 02:53 40.06644 116.60078 130 ft 8 kts 173°
2026-05-05 02:53 40.06580 116.60088 130 ft 10 kts 173°
2026-05-05 02:54 40.06505 116.60099 130 ft 11 kts 173°
2026-05-05 02:54 40.06446 116.60108 130 ft 5 kts 173°
2026-05-05 02:54 40.06403 116.60116 130 ft 7 kts 173°
2026-05-05 02:54 40.06348 116.60125 130 ft 8 kts 173°
2026-05-05 02:55 40.06288 116.60135 130 ft 3 kts 175°
2026-05-05 02:55 40.06256 116.60139 130 ft 5 kts 174°
2026-05-05 02:55 40.06210 116.60146 130 ft 7 kts 174°
2026-05-05 02:55 40.06153 116.60155 130 ft 9 kts 173°
2026-05-05 02:56 40.06086 116.60165 130 ft 10 kts 174°
2026-05-05 02:56 40.06009 116.60178 130 ft 11 kts 170°
2026-05-05 02:56 40.05926 116.60190 130 ft 12 kts 173°
2026-05-05 02:56 40.05860 116.60201 130 ft 8 kts 172°
2026-05-05 02:57 40.05795 116.60211 130 ft 10 kts 174°
2026-05-05 02:57 40.05722 116.60223 130 ft 11 kts 173°
2026-05-05 02:57 40.05639 116.60236 130 ft 12 kts 173°
2026-05-05 02:57 40.05590 116.60243 130 ft 7 kts 172°
2026-05-05 02:58 40.05558 116.60235 130 ft 4 kts 216°
2026-05-05 02:58 40.05541 116.60200 130 ft 5 kts 252°
2026-05-05 02:58 40.05540 116.60198 130 ft 0 kts 252°
2026-05-05 02:58 40.05539 116.60191 130 ft 1 kts 254°
2026-05-05 02:59 40.05535 116.60168 130 ft 3 kts 259°
2026-05-05 02:59 40.05532 116.60126 130 ft 5 kts 275°
2026-05-05 02:59 40.05543 116.60076 130 ft 2 kts 292°
2026-05-05 02:59 40.05554 116.60051 130 ft 4 kts 306°
2026-05-05 03:00 40.05581 116.60021 130 ft 6 kts 334°
2026-05-05 03:00 40.05602 116.60013 130 ft 0 kts 348°
2026-05-05 03:01 40.05604 116.60012 130 ft 1 kts 349°
2026-05-05 03:01 40.05798 116.59977 130 ft 72 kts 353°
2026-05-05 03:01 40.06607 116.59853 132 ft 160 kts 354°
2026-05-05 03:02 40.07899 116.59660 566 ft 201 kts 353°
2026-05-05 03:02 40.09198 116.59444 1993 ft 183 kts 354°
2026-05-05 03:02 40.10336 116.59264 2993 ft 159 kts 353°
2026-05-05 03:02 40.11385 116.59101 3586 ft 152 kts 352°
2026-05-05 03:03 40.12488 116.58927 3847 ft 172 kts 351°
2026-05-05 03:03 40.13810 116.58714 3896 ft 212 kts 351°
2026-05-05 03:03 40.15427 116.58456 3877 ft 249 kts 352°
2026-05-05 03:03 40.17231 116.58173 3871 ft 271 kts 352°
2026-05-05 03:04 40.19163 116.57870 4131 ft 290 kts 351°
2026-05-05 03:04 40.21115 116.57564 5333 ft 283 kts 349°
2026-05-05 03:04 40.23078 116.57255 6251 ft 289 kts 348°
2026-05-05 03:04 40.24984 116.56591 7063 ft 285 kts 326°
2026-05-05 03:05 40.26570 116.55138 7992 ft 281 kts 315°
2026-05-05 03:05 40.28057 116.53458 8940 ft 283 kts 313°
2026-05-05 03:05 40.29514 116.51761 9803 ft 286 kts 313°
2026-05-05 03:05 40.30898 116.49885 10456 ft 294 kts 304°
2026-05-05 03:06 40.32048 116.47599 10945 ft 309 kts 294°
2026-05-05 03:06 40.32863 116.44941 11468 ft 324 kts 283°
2026-05-05 03:06 40.33251 116.41989 12005 ft 338 kts 270°
2026-05-05 03:06 40.32905 116.38924 12541 ft 353 kts 253°
2026-05-05 03:07 40.32267 116.35746 13110 ft 370 kts 260°
2026-05-05 03:07 40.31990 116.32347 13971 ft 380 kts 265°
2026-05-05 03:07 40.31869 116.28905 15007 ft 385 kts 267°
2026-05-05 03:07 40.31795 116.25411 16061 ft 390 kts 268°
2026-05-05 03:08 40.31745 116.21841 17018 ft 396 kts 269°
2026-05-05 03:08 40.31709 116.18220 17965 ft 403 kts 270°
2026-05-05 03:08 40.31682 116.14545 19000 ft 406 kts 270°
2026-05-05 03:08 40.31660 116.10865 20049 ft 410 kts 270°
2026-05-05 03:09 40.31423 116.07168 21019 ft 415 kts 262°
2026-05-05 03:09 40.30748 116.03487 21959 ft 421 kts 254°
2026-05-05 03:09 40.29627 115.99929 22891 ft 427 kts 245°
2026-05-05 03:09 40.28077 115.96606 23777 ft 436 kts 237°
2026-05-05 03:10 40.26098 115.93575 24595 ft 445 kts 228°
2026-05-05 03:10 40.23714 115.90942 25331 ft 456 kts 219°
2026-05-05 03:10 40.20955 115.88788 26060 ft 466 kts 212°
2026-05-05 03:10 40.18058 115.86861 26839 ft 470 kts 211°
2026-05-05 03:11 40.15110 115.84911 27615 ft 474 kts 211°
2026-05-05 03:11 40.12184 115.82967 28290 ft 480 kts 211°
2026-05-05 03:11 40.09216 115.80985 28949 ft 485 kts 211°
2026-05-05 03:11 40.06179 115.78954 29758 ft 487 kts 211°
2026-05-05 03:12 40.03204 115.76959 30720 ft 485 kts 212°
2026-05-05 03:12 40.00231 115.74967 31793 ft 479 kts 212°
2026-05-05 03:12 39.97284 115.72991 32803 ft 473 kts 212°
2026-05-05 03:12 39.94414 115.71066 33613 ft 470 kts 212°
2026-05-05 03:13 39.91497 115.69106 33903 ft 475 kts 212°
2026-05-05 03:13 39.85944 115.64548 33920 ft 464 kts 225°
2026-05-05 03:14 39.81785 115.58363 33929 ft 456 kts 242°
2026-05-05 03:14 39.78731 115.51163 33943 ft 453 kts 246°
2026-05-05 03:15 39.75783 115.43960 33955 ft 453 kts 246°
2026-05-05 03:15 39.72922 115.36726 33957 ft 452 kts 246°
2026-05-05 03:16 39.70053 115.29463 33975 ft 453 kts 246°
2026-05-05 03:16 39.67179 115.22215 33982 ft 451 kts 246°
2026-05-05 03:17 39.64308 115.14996 33983 ft 452 kts 246°
2026-05-05 03:17 39.61433 115.07790 33997 ft 452 kts 246°
2026-05-05 03:18 39.58541 115.00558 34001 ft 453 kts 246°
2026-05-05 03:18 39.55648 114.93342 34014 ft 453 kts 246°
2026-05-05 03:19 39.51294 114.82512 34022 ft 454 kts 246°
2026-05-05 03:19 39.48381 114.75291 34010 ft 454 kts 246°
2026-05-05 03:20 39.45452 114.68047 34009 ft 454 kts 247°
2026-05-05 03:20 39.42553 114.60894 34007 ft 453 kts 247°
2026-05-05 03:21 39.39612 114.53652 34008 ft 455 kts 247°
2026-05-05 03:21 39.36451 114.46614 34001 ft 461 kts 238°
2026-05-05 03:22 39.31847 114.40715 33991 ft 473 kts 221°
2026-05-05 03:22 39.25982 114.36786 33980 ft 487 kts 203°
2026-05-05 03:23 39.19253 114.35306 33976 ft 499 kts 184°
2026-05-05 03:23 39.12350 114.36636 33975 ft 507 kts 166°
2026-05-05 03:24 39.05573 114.39197 33976 ft 507 kts 168°
2026-05-05 03:24 38.98719 114.41421 33975 ft 506 kts 170°
2026-05-05 03:25 38.91900 114.43410 33959 ft 506 kts 171°
2026-05-05 03:25 38.84977 114.45306 33939 ft 506 kts 171°
2026-05-05 03:26 38.78101 114.47122 33923 ft 506 kts 172°
2026-05-05 03:26 38.71227 114.48911 33907 ft 506 kts 172°
2026-05-05 03:27 38.64340 114.50682 33895 ft 507 kts 172°
2026-05-05 03:27 38.57431 114.52445 33879 ft 505 kts 172°
2026-05-05 03:28 38.50525 114.54211 33866 ft 509 kts 172°
2026-05-05 03:28 38.43586 114.55962 33863 ft 506 kts 173°
2026-05-05 03:29 38.36626 114.57521 33862 ft 508 kts 173°
2026-05-05 03:29 38.29699 114.59063 33860 ft 507 kts 173°
2026-05-05 03:30 38.22763 114.60609 33858 ft 508 kts 173°
2026-05-05 03:30 38.15813 114.62157 33858 ft 508 kts 173°
2026-05-05 03:31 38.08825 114.63714 33852 ft 509 kts 173°
2026-05-05 03:31 38.01836 114.65268 33845 ft 508 kts 173°
2026-05-05 03:32 37.94860 114.66817 33860 ft 511 kts 173°
2026-05-05 03:32 37.87864 114.68368 33849 ft 509 kts 173°
2026-05-05 03:33 37.80883 114.69912 33845 ft 509 kts 172°
2026-05-05 03:33 37.73926 114.71448 33851 ft 510 kts 172°
2026-05-05 03:34 37.66938 114.72988 33858 ft 509 kts 172°
2026-05-05 03:34 37.59956 114.74524 33866 ft 510 kts 172°
2026-05-05 03:35 37.52959 114.76060 33867 ft 510 kts 172°
2026-05-05 03:35 37.46007 114.77580 33876 ft 511 kts 172°
2026-05-05 03:36 37.39022 114.79099 33873 ft 510 kts 172°
2026-05-05 03:36 37.32003 114.80621 33873 ft 510 kts 172°
2026-05-05 03:37 37.24996 114.82171 33887 ft 511 kts 171°
2026-05-05 03:37 37.18073 114.83792 33883 ft 509 kts 171°
2026-05-05 03:38 37.11069 114.85426 33887 ft 511 kts 171°
2026-05-05 03:38 37.04086 114.87049 33891 ft 510 kts 171°
2026-05-05 03:39 36.97140 114.88660 33893 ft 510 kts 171°
2026-05-05 03:39 36.90169 114.90271 33901 ft 511 kts 171°
2026-05-05 03:40 36.83162 114.91888 33896 ft 511 kts 171°
2026-05-05 03:40 36.76188 114.93494 33895 ft 509 kts 171°
2026-05-05 03:41 36.69226 114.95094 33907 ft 510 kts 171°
2026-05-05 03:41 36.62287 114.96686 33905 ft 510 kts 171°
2026-05-05 03:42 36.55251 114.98296 33906 ft 511 kts 171°
2026-05-05 03:42 36.48276 114.99891 33913 ft 510 kts 171°
2026-05-05 03:43 36.41286 115.01485 33903 ft 510 kts 170°
2026-05-05 03:43 36.34277 115.02525 33916 ft 507 kts 182°
2026-05-05 03:44 36.27253 115.01927 33918 ft 507 kts 186°
2026-05-05 03:44 36.20245 115.01207 33921 ft 507 kts 186°
2026-05-05 03:45 36.13201 115.00485 33925 ft 508 kts 186°
2026-05-05 03:45 36.06171 114.99766 33936 ft 508 kts 186°
2026-05-05 03:46 35.99168 114.99052 33934 ft 507 kts 186°
2026-05-05 03:46 35.92119 114.98334 33941 ft 508 kts 186°
2026-05-05 03:47 35.85064 114.97618 33938 ft 508 kts 186°
2026-05-05 03:47 35.78009 114.96903 33933 ft 510 kts 186°
2026-05-05 03:48 35.70968 114.96191 33927 ft 509 kts 186°
2026-05-05 03:48 35.63874 114.95475 33932 ft 507 kts 186°
2026-05-05 03:49 35.56877 114.94769 33933 ft 508 kts 186°
2026-05-05 03:49 35.49787 114.94056 33936 ft 508 kts 186°
2026-05-05 03:50 35.42748 114.93349 33955 ft 510 kts 186°
2026-05-05 03:50 35.35712 114.92644 33966 ft 510 kts 186°
2026-05-05 03:51 35.28614 114.91933 33946 ft 511 kts 186°
2026-05-05 03:51 35.21577 114.91230 33972 ft 509 kts 186°
2026-05-05 03:52 35.14471 114.90521 33959 ft 511 kts 186°
2026-05-05 03:52 35.07439 114.89822 33965 ft 510 kts 186°
2026-05-05 03:53 35.00382 114.89120 33973 ft 510 kts 186°
2026-05-05 03:53 34.93272 114.88415 33966 ft 511 kts 186°
2026-05-05 03:54 34.86218 114.87716 33950 ft 511 kts 186°
2026-05-05 03:54 34.79169 114.87019 33953 ft 508 kts 186°
2026-05-05 03:55 34.72107 114.86322 33961 ft 507 kts 186°
2026-05-05 03:55 34.65067 114.85628 33963 ft 508 kts 186°
2026-05-05 03:56 34.58005 114.84933 33960 ft 508 kts 186°
2026-05-05 03:56 34.50986 114.84244 33966 ft 507 kts 186°
2026-05-05 03:57 34.43954 114.83555 33964 ft 506 kts 186°
2026-05-05 03:57 34.36926 114.82867 33969 ft 506 kts 186°
2026-05-05 03:58 34.29942 114.82185 33974 ft 505 kts 186°
2026-05-05 03:58 34.22909 114.81498 33971 ft 507 kts 186°
2026-05-05 03:59 34.15891 114.80815 33979 ft 505 kts 186°
2026-05-05 03:59 34.08872 114.80139 33978 ft 504 kts 186°
2026-05-05 04:00 34.01903 114.79470 33975 ft 504 kts 186°
2026-05-05 04:00 33.94907 114.78799 33980 ft 505 kts 186°
2026-05-05 04:01 33.87889 114.78126 33980 ft 505 kts 186°
2026-05-05 04:01 33.80916 114.77451 33987 ft 504 kts 186°
2026-05-05 04:02 33.73941 114.76750 33994 ft 503 kts 186°
2026-05-05 04:02 33.66965 114.76067 33984 ft 502 kts 186°
2026-05-05 04:03 33.60010 114.75429 33987 ft 503 kts 186°
2026-05-05 04:03 33.53010 114.74730 33989 ft 502 kts 187°
2026-05-05 04:04 33.46055 114.74013 33989 ft 503 kts 186°
2026-05-05 04:04 33.39048 114.73334 33992 ft 502 kts 186°
2026-05-05 04:05 33.32119 114.72666 33989 ft 501 kts 186°
2026-05-05 04:05 33.25153 114.71995 33987 ft 501 kts 186°
2026-05-05 04:06 33.18229 114.71326 33987 ft 501 kts 187°
2026-05-05 04:06 33.11250 114.70636 33992 ft 501 kts 187°
2026-05-05 04:07 33.04315 114.69951 33993 ft 502 kts 186°
2026-05-05 04:07 32.97355 114.69266 33987 ft 499 kts 187°
2026-05-05 04:08 32.90433 114.68584 34000 ft 501 kts 187°
2026-05-05 04:08 32.83517 114.67918 33994 ft 500 kts 186°
2026-05-05 04:09 32.76542 114.67261 33995 ft 500 kts 187°
2026-05-05 04:09 32.69602 114.66607 34010 ft 501 kts 187°
2026-05-05 04:10 32.62676 114.65955 34004 ft 500 kts 187°
2026-05-05 04:10 32.55753 114.65304 34005 ft 500 kts 187°
2026-05-05 04:11 32.48778 114.64648 34007 ft 501 kts 187°
2026-05-05 04:11 32.41848 114.63998 33993 ft 500 kts 187°
2026-05-05 04:12 32.34917 114.63341 33995 ft 501 kts 187°
2026-05-05 04:12 32.28013 114.62667 34010 ft 500 kts 187°
2026-05-05 04:13 32.21101 114.61993 34002 ft 499 kts 187°
2026-05-05 04:13 32.14139 114.61316 34071 ft 500 kts 187°
2026-05-05 04:14 32.07188 114.60641 34008 ft 499 kts 187°
2026-05-05 04:14 32.00323 114.59977 34029 ft 500 kts 187°
2026-05-05 04:15 31.93407 114.59308 34005 ft 498 kts 188°
2026-05-05 04:15 31.86476 114.58639 34017 ft 500 kts 187°
2026-05-05 04:16 31.79534 114.57970 34023 ft 499 kts 188°
2026-05-05 04:16 31.72629 114.57305 34010 ft 499 kts 188°
2026-05-05 04:17 31.65710 114.56640 34024 ft 499 kts 188°
2026-05-05 04:17 31.58749 114.55973 34022 ft 497 kts 188°
2026-05-05 04:18 31.51843 114.55313 34028 ft 499 kts 188°
2026-05-05 04:18 31.44931 114.54653 34027 ft 498 kts 188°
2026-05-05 04:19 31.38039 114.53996 34046 ft 498 kts 188°
2026-05-05 04:19 31.31113 114.53338 34019 ft 497 kts 188°
2026-05-05 04:20 31.24347 114.52189 34022 ft 490 kts 200°
2026-05-05 04:20 31.18092 114.49156 34025 ft 484 kts 210°
2026-05-05 04:21 31.12021 114.45795 34020 ft 482 kts 210°
2026-05-05 04:21 31.05951 114.42433 34027 ft 483 kts 210°
2026-05-05 04:22 30.99889 114.39080 34028 ft 483 kts 210°
2026-05-05 04:22 30.93847 114.35744 34041 ft 483 kts 210°
2026-05-05 04:23 30.87725 114.32464 34043 ft 483 kts 208°
2026-05-05 04:23 30.81582 114.29259 34038 ft 484 kts 208°
2026-05-05 04:24 30.75467 114.25973 34044 ft 481 kts 210°
2026-05-05 04:25 30.66357 114.21017 34045 ft 481 kts 210°
2026-05-05 04:25 30.60312 114.17737 34036 ft 481 kts 210°
2026-05-05 04:26 30.54215 114.14434 34025 ft 482 kts 210°
2026-05-05 04:26 30.48145 114.11153 34016 ft 483 kts 210°
2026-05-05 04:27 30.42116 114.07900 34034 ft 479 kts 210°
2026-05-05 04:27 30.36023 114.04615 34019 ft 481 kts 210°
2026-05-05 04:28 30.29988 114.01367 34023 ft 480 kts 210°
2026-05-05 04:28 30.23940 113.98116 34025 ft 479 kts 210°
2026-05-05 04:29 30.17859 113.94859 34025 ft 480 kts 210°
2026-05-05 04:29 30.11822 113.91630 34021 ft 478 kts 210°
2026-05-05 04:30 30.05800 113.88413 34020 ft 479 kts 210°
2026-05-05 04:30 29.99763 113.85193 34017 ft 478 kts 210°
2026-05-05 04:31 29.93723 113.81975 34007 ft 479 kts 210°
2026-05-05 04:31 29.87549 113.79065 34011 ft 484 kts 200°
2026-05-05 04:32 29.80760 113.78011 34007 ft 495 kts 189°
2026-05-05 04:32 29.73889 113.77536 33999 ft 495 kts 189°
2026-05-05 04:32 29.70451 113.77299 34100 ft 499 kts 189°
2026-05-05 04:33 29.66977 113.77059 34043 ft 495 kts 189°
2026-05-05 04:33 29.60120 113.76586 34049 ft 495 kts 189°
2026-05-05 04:34 29.53266 113.76112 34072 ft 493 kts 189°
2026-05-05 04:34 29.46425 113.75639 34078 ft 492 kts 189°
2026-05-05 04:35 29.39554 113.75163 34061 ft 493 kts 189°
2026-05-05 04:35 29.32684 113.74688 34068 ft 492 kts 189°
2026-05-05 04:36 29.25880 113.74219 34052 ft 492 kts 189°
2026-05-05 04:36 29.18983 113.74014 34059 ft 496 kts 184°
2026-05-05 04:37 29.12111 113.74287 34058 ft 496 kts 184°
2026-05-05 04:37 29.05221 113.74534 34060 ft 494 kts 185°
2026-05-05 04:38 28.98344 113.74759 34058 ft 494 kts 185°
2026-05-05 04:38 28.91398 113.74973 34069 ft 495 kts 185°
2026-05-05 04:39 28.84535 113.75181 34076 ft 492 kts 185°
2026-05-05 04:39 28.77680 113.75382 34071 ft 494 kts 185°
2026-05-05 04:40 28.70808 113.75299 34080 ft 488 kts 191°
2026-05-05 04:40 28.64017 113.74795 34081 ft 489 kts 191°
2026-05-05 04:41 28.57243 113.74292 34090 ft 488 kts 191°
2026-05-05 04:41 28.50444 113.73789 34105 ft 489 kts 191°
2026-05-05 04:42 28.43641 113.73289 34097 ft 487 kts 191°
2026-05-05 04:42 28.36857 113.72792 34085 ft 488 kts 191°
2026-05-05 04:43 28.30082 113.72297 34077 ft 489 kts 191°
2026-05-05 04:43 28.23294 113.71807 34070 ft 486 kts 191°
2026-05-05 04:44 28.16525 113.71311 34061 ft 489 kts 191°
2026-05-05 04:44 28.09750 113.70793 34076 ft 485 kts 192°
2026-05-05 04:45 28.03016 113.70192 34077 ft 485 kts 193°
2026-05-05 04:45 27.96272 113.69582 34082 ft 486 kts 192°
2026-05-05 04:46 27.89529 113.68976 34075 ft 486 kts 193°
2026-05-05 04:46 27.82776 113.68372 34082 ft 484 kts 193°
2026-05-05 04:47 27.76052 113.67771 34084 ft 485 kts 193°
2026-05-05 04:47 27.69309 113.67170 34078 ft 487 kts 193°
2026-05-05 04:48 27.62557 113.66594 34079 ft 487 kts 190°
2026-05-05 04:48 27.55732 113.66456 34086 ft 491 kts 189°
2026-05-05 04:49 27.48923 113.66339 34083 ft 492 kts 189°
2026-05-05 04:49 27.42075 113.66207 34080 ft 491 kts 189°
2026-05-05 04:50 27.35246 113.66066 34082 ft 490 kts 190°
2026-05-05 04:50 27.28427 113.65921 34075 ft 489 kts 190°
2026-05-05 04:51 27.21606 113.65772 34080 ft 490 kts 190°
2026-05-05 04:51 27.18135 113.65914 34085 ft 501 kts 181°
2026-05-05 04:51 27.14699 113.66625 34085 ft 508 kts 174°
2026-05-05 04:52 27.07818 113.68650 34087 ft 511 kts 173°
2026-05-05 04:52 27.00897 113.70711 34087 ft 511 kts 173°
2026-05-05 04:53 26.94073 113.72734 34084 ft 510 kts 173°
2026-05-05 04:53 26.87162 113.74774 34099 ft 509 kts 173°
2026-05-05 04:54 26.80323 113.76788 34107 ft 511 kts 173°
2026-05-05 04:54 26.73460 113.78807 34116 ft 508 kts 173°
2026-05-05 04:55 26.66633 113.80939 34121 ft 510 kts 173°
2026-05-05 04:55 26.59832 113.83081 34127 ft 506 kts 173°
2026-05-05 04:56 26.52957 113.85235 34134 ft 511 kts 172°
2026-05-05 04:56 26.46165 113.87307 34146 ft 506 kts 174°
2026-05-05 04:57 26.39309 113.89281 34175 ft 504 kts 174°
2026-05-05 04:57 26.32515 113.91236 34184 ft 506 kts 174°
2026-05-05 04:58 26.25688 113.93204 34204 ft 505 kts 174°
2026-05-05 04:58 26.18865 113.95169 34229 ft 504 kts 174°
2026-05-05 04:59 26.12122 113.97111 34239 ft 503 kts 174°
2026-05-05 04:59 26.05308 113.99070 34241 ft 502 kts 174°
2026-05-05 05:00 25.98560 114.01028 34234 ft 503 kts 173°
2026-05-05 05:00 25.91751 114.03056 34210 ft 504 kts 173°
2026-05-05 05:01 25.84982 114.05072 34182 ft 502 kts 173°
2026-05-05 05:01 25.78238 114.07074 34161 ft 504 kts 173°
2026-05-05 05:02 25.71447 114.09087 34144 ft 502 kts 173°
2026-05-05 05:02 25.64689 114.11087 34147 ft 504 kts 173°
2026-05-05 05:03 25.57905 114.13094 34149 ft 502 kts 173°
2026-05-05 05:03 25.51119 114.15097 34145 ft 502 kts 173°
2026-05-05 05:04 25.44373 114.17087 34144 ft 502 kts 173°
2026-05-05 05:04 25.37644 114.19069 34135 ft 501 kts 174°
2026-05-05 05:05 25.30893 114.21055 34130 ft 501 kts 173°
2026-05-05 05:05 25.24114 114.23045 34123 ft 504 kts 173°
2026-05-05 05:06 25.17328 114.25038 34120 ft 503 kts 173°
2026-05-05 05:06 25.10545 114.26547 34110 ft 487 kts 186°
2026-05-05 05:06 25.07230 114.26523 34112 ft 476 kts 194°
2026-05-05 05:07 25.03962 114.26002 34116 ft 470 kts 199°
2026-05-05 05:07 24.97555 114.24671 34116 ft 466 kts 200°
2026-05-05 05:08 24.91179 114.23309 34131 ft 467 kts 200°
2026-05-05 05:08 24.84812 114.21939 34140 ft 465 kts 200°
2026-05-05 05:09 24.78417 114.20556 34147 ft 467 kts 200°
2026-05-05 05:09 24.72045 114.19177 34153 ft 466 kts 200°
2026-05-05 05:10 24.65680 114.17799 34147 ft 465 kts 200°
2026-05-05 05:10 24.59336 114.16425 34141 ft 464 kts 200°
2026-05-05 05:11 24.53010 114.15057 34141 ft 465 kts 200°
2026-05-05 05:11 24.46621 114.13675 34139 ft 466 kts 200°
2026-05-05 05:12 24.40258 114.12301 34138 ft 466 kts 200°
2026-05-05 05:12 24.34142 114.10384 34138 ft 449 kts 213°
2026-05-05 05:13 24.28752 114.07067 34133 ft 442 kts 219°
2026-05-05 05:13 24.23536 114.03493 34125 ft 439 kts 220°
2026-05-05 05:14 24.18390 113.99901 34132 ft 439 kts 220°
2026-05-05 05:14 24.13258 113.96330 34143 ft 441 kts 220°
2026-05-05 05:15 24.08435 113.92295 34149 ft 433 kts 229°
2026-05-05 05:15 24.03964 113.87889 34144 ft 432 kts 229°
2026-05-05 05:16 23.99477 113.83470 34138 ft 432 kts 229°
2026-05-05 05:16 23.94992 113.79060 34128 ft 433 kts 229°
2026-05-05 05:17 23.90513 113.74663 34124 ft 434 kts 229°
2026-05-05 05:17 23.86022 113.70260 34119 ft 433 kts 229°
2026-05-05 05:18 23.81546 113.65875 34113 ft 433 kts 229°
2026-05-05 05:18 23.77034 113.61459 34106 ft 435 kts 229°
2026-05-05 05:19 23.72540 113.57066 34094 ft 435 kts 229°
2026-05-05 05:19 23.68022 113.52653 34091 ft 435 kts 229°
2026-05-05 05:20 23.63523 113.48264 34091 ft 434 kts 229°
2026-05-05 05:20 23.61272 113.46072 33875 ft 428 kts 229°
2026-05-05 05:20 23.59065 113.43922 33164 ft 427 kts 229°
2026-05-05 05:20 23.56841 113.41755 32389 ft 428 kts 229°
2026-05-05 05:21 23.54506 113.39735 31627 ft 434 kts 221°
2026-05-05 05:21 23.51874 113.38052 30846 ft 443 kts 213°
2026-05-05 05:21 23.49005 113.36774 30292 ft 445 kts 207°
2026-05-05 05:21 23.46098 113.35664 29800 ft 439 kts 207°
2026-05-05 05:22 23.43205 113.34568 29316 ft 436 kts 207°
2026-05-05 05:22 23.40292 113.33457 28810 ft 450 kts 206°
2026-05-05 05:22 23.37358 113.32340 28254 ft 452 kts 206°
2026-05-05 05:22 23.34371 113.31208 27690 ft 448 kts 206°
2026-05-05 05:23 23.31455 113.30103 27143 ft 444 kts 206°
2026-05-05 05:23 23.28528 113.28993 26601 ft 439 kts 206°
2026-05-05 05:23 23.25680 113.27914 26071 ft 435 kts 206°
2026-05-05 05:23 23.22847 113.26839 25525 ft 431 kts 206°
2026-05-05 05:24 23.20022 113.25768 25000 ft 427 kts 206°
2026-05-05 05:24 23.17213 113.24704 24342 ft 419 kts 206°
2026-05-05 05:24 23.14515 113.23716 24006 ft 411 kts 202°
2026-05-05 05:24 23.11647 113.23106 23332 ft 420 kts 192°
2026-05-05 05:25 23.08722 113.23055 22679 ft 429 kts 181°
2026-05-05 05:25 23.05757 113.23592 22227 ft 432 kts 171°
2026-05-05 05:25 23.02896 113.24697 21733 ft 436 kts 160°
2026-05-05 05:25 23.00295 113.26356 21594 ft 429 kts 149°
2026-05-05 05:26 22.98012 113.28462 21256 ft 445 kts 139°
2026-05-05 05:26 22.96023 113.31060 20796 ft 453 kts 127°
2026-05-05 05:26 22.94471 113.34049 20357 ft 453 kts 118°
2026-05-05 05:26 22.93136 113.37110 19773 ft 445 kts 119°
2026-05-05 05:27 22.91599 113.39913 19220 ft 427 kts 130°
2026-05-05 05:27 22.89725 113.42274 18818 ft 405 kts 141°
2026-05-05 05:27 22.85240 113.45558 17508 ft 377 kts 163°
2026-05-05 05:28 22.82798 113.46423 16659 ft 371 kts 173°
2026-05-05 05:28 22.80265 113.46874 15828 ft 364 kts 180°
2026-05-05 05:28 22.77787 113.46836 15175 ft 349 kts 193°
2026-05-05 05:28 22.75464 113.46224 14482 ft 337 kts 205°
2026-05-05 05:29 22.73402 113.45135 13754 ft 328 kts 217°
2026-05-05 05:29 22.71610 113.43615 12986 ft 322 kts 228°
2026-05-05 05:29 22.70197 113.41790 12252 ft 316 kts 238°
2026-05-05 05:29 22.69268 113.39709 11497 ft 312 kts 257°
2026-05-05 05:30 22.68956 113.37375 10871 ft 311 kts 260°
2026-05-05 05:30 22.68454 113.35127 10443 ft 309 kts 252°
2026-05-05 05:30 22.67733 113.32954 10037 ft 307 kts 249°
2026-05-05 05:30 22.66920 113.30802 9615 ft 305 kts 247°
2026-05-05 05:31 22.66098 113.28706 9175 ft 305 kts 247°
2026-05-05 05:31 22.65257 113.26582 8732 ft 304 kts 247°
2026-05-05 05:31 22.64427 113.24490 8339 ft 302 kts 247°
2026-05-05 05:31 22.63602 113.22411 7948 ft 300 kts 247°
2026-05-05 05:32 22.62788 113.20362 7860 ft 300 kts 247°
2026-05-05 05:32 22.61959 113.18277 7851 ft 301 kts 247°
2026-05-05 05:32 22.61140 113.16216 7846 ft 291 kts 246°
2026-05-05 05:32 22.60354 113.14240 7845 ft 276 kts 247°
2026-05-05 05:33 22.59617 113.12389 7844 ft 261 kts 247°
2026-05-05 05:33 22.58917 113.10637 7841 ft 248 kts 245°
2026-05-05 05:33 22.57904 113.09152 7836 ft 247 kts 220°
2026-05-05 05:33 22.56375 113.08317 7838 ft 251 kts 195°
2026-05-05 05:34 22.54615 113.08076 7848 ft 255 kts 186°
2026-05-05 05:34 22.52866 113.08366 7836 ft 261 kts 160°
2026-05-05 05:34 22.51364 113.09523 7807 ft 270 kts 133°
2026-05-05 05:34 22.50501 113.11347 7653 ft 276 kts 103°
2026-05-05 05:35 22.50431 113.13400 7544 ft 277 kts 88°
2026-05-05 05:35 22.50558 113.15495 7424 ft 277 kts 87°
2026-05-05 05:35 22.50692 113.17566 7284 ft 276 kts 87°
2026-05-05 05:35 22.50828 113.19638 7138 ft 275 kts 87°
2026-05-05 05:36 22.50958 113.21645 7001 ft 274 kts 87°
2026-05-05 05:36 22.51092 113.23701 6858 ft 273 kts 87°
2026-05-05 05:36 22.51223 113.25724 6716 ft 272 kts 87°
2026-05-05 05:36 22.51357 113.27783 6571 ft 271 kts 87°
2026-05-05 05:37 22.51487 113.29799 6429 ft 270 kts 87°
2026-05-05 05:37 22.51619 113.31841 6283 ft 269 kts 87°
2026-05-05 05:37 22.51747 113.33826 6140 ft 267 kts 87°
2026-05-05 05:37 22.51875 113.35824 5997 ft 266 kts 87°
2026-05-05 05:38 22.52004 113.37827 5851 ft 264 kts 87°
2026-05-05 05:38 22.52131 113.39816 5707 ft 265 kts 87°
2026-05-05 05:38 22.52255 113.41769 5561 ft 263 kts 87°
2026-05-05 05:38 22.52382 113.43765 5416 ft 262 kts 87°
2026-05-05 05:39 22.52507 113.45715 5270 ft 260 kts 87°
2026-05-05 05:39 22.52631 113.47669 5126 ft 259 kts 87°
2026-05-05 05:39 22.52753 113.49604 4979 ft 258 kts 87°
2026-05-05 05:39 22.52874 113.51520 4864 ft 256 kts 87°
2026-05-05 05:40 22.52995 113.53441 4849 ft 257 kts 87°
2026-05-05 05:40 22.53077 113.55385 4843 ft 256 kts 96°
2026-05-05 05:40 22.52588 113.57203 4852 ft 253 kts 116°
2026-05-05 05:40 22.51788 113.58907 4860 ft 252 kts 120°
2026-05-05 05:41 22.50948 113.60573 4859 ft 252 kts 120°
2026-05-05 05:41 22.50107 113.62231 4750 ft 249 kts 120°
2026-05-05 05:41 22.49291 113.63844 4613 ft 243 kts 120°
2026-05-05 05:41 22.48546 113.65462 4465 ft 237 kts 113°
2026-05-05 05:42 22.47984 113.67130 4315 ft 231 kts 111°
2026-05-05 05:42 22.47473 113.68738 4170 ft 225 kts 111°
2026-05-05 05:42 22.46963 113.70331 4025 ft 223 kts 111°
2026-05-05 05:42 22.46450 113.71927 3877 ft 223 kts 111°
2026-05-05 05:43 22.45943 113.73501 3731 ft 223 kts 111°
2026-05-05 05:43 22.45430 113.75093 3583 ft 221 kts 110°
2026-05-05 05:43 22.44927 113.76655 3436 ft 221 kts 110°
2026-05-05 05:43 22.44514 113.78250 3278 ft 220 kts 94°
2026-05-05 05:44 22.44796 113.79859 3125 ft 221 kts 70°
2026-05-05 05:44 22.45448 113.81360 2978 ft 219 kts 64°
2026-05-05 05:44 22.46154 113.82821 2809 ft 217 kts 64°
2026-05-05 05:44 22.46850 113.84259 2639 ft 214 kts 64°
2026-05-05 05:45 22.47528 113.85664 2470 ft 209 kts 64°
2026-05-05 05:45 22.48213 113.87031 2304 ft 204 kts 56°
2026-05-05 05:45 22.49301 113.87936 2257 ft 193 kts 23°
2026-05-05 05:45 22.50569 113.88167 2244 ft 178 kts 356°
2026-05-05 05:46 22.51683 113.87759 2246 ft 163 kts 334°
2026-05-05 05:46 22.52672 113.87180 2132 ft 158 kts 334°
2026-05-05 05:46 22.53635 113.86656 1943 ft 153 kts 336°
2026-05-05 05:46 22.54575 113.86147 1752 ft 148 kts 336°
2026-05-05 05:47 22.55488 113.85653 1566 ft 146 kts 337°
2026-05-05 05:47 22.56394 113.85161 1374 ft 145 kts 336°
2026-05-05 05:47 22.57302 113.84666 1175 ft 143 kts 336°
2026-05-05 05:47 22.58187 113.84184 987 ft 142 kts 336°
2026-05-05 05:48 22.59070 113.83704 798 ft 142 kts 336°
2026-05-05 05:48 22.59963 113.83218 609 ft 141 kts 336°
2026-05-05 05:48 22.60841 113.82740 426 ft 141 kts 335°
2026-05-05 05:48 22.61707 113.82269 255 ft 138 kts 336°
2026-05-05 05:49 22.62575 113.81797 76 ft 136 kts 336°
2026-05-05 05:49 22.63401 113.81347 27 ft 118 kts 335°
2026-05-05 05:49 22.63855 113.81097 27 ft 37 kts 322°
2026-05-05 05:49 22.63989 113.80961 27 ft 17 kts 307°
2026-05-05 05:50 22.64015 113.80920 27 ft 0 kts 301°
2026-05-05 05:51 22.64016 113.80920 27 ft 0 kts 301°
2026-05-05 05:51 22.64017 113.80917 27 ft 0 kts 301°
2026-05-05 05:52 22.64021 113.80910 27 ft 0 kts 301°
2026-05-05 05:54 22.64022 113.80909 27 ft 0 kts 301°
2026-05-05 05:54 22.64024 113.80904 27 ft 1 kts 301°
2026-05-05 05:54 22.64029 113.80894 27 ft 1 kts 301°
2026-05-05 05:54 22.64038 113.80880 27 ft 2 kts 301°
2026-05-05 05:55 22.64050 113.80859 27 ft 3 kts 301°
2026-05-05 05:55 22.64064 113.80833 27 ft 4 kts 301°
2026-05-05 05:55 22.64082 113.80801 27 ft 5 kts 301°
2026-05-05 05:55 22.64104 113.80765 27 ft 6 kts 309°
2026-05-05 05:56 22.64136 113.80733 27 ft 6 kts 327°
2026-05-05 05:56 22.64149 113.80724 27 ft 0 kts 330°
2026-05-05 05:57 22.64150 113.80724 27 ft 0 kts 330°
2026-05-05 05:57 22.64155 113.80720 27 ft 1 kts 330°
2026-05-05 05:57 22.64164 113.80715 27 ft 1 kts 330°
2026-05-05 05:57 22.64177 113.80708 27 ft 2 kts 330°
2026-05-05 05:58 22.64191 113.80695 27 ft 2 kts 311°
2026-05-05 05:58 22.64199 113.80675 27 ft 2 kts 281°
2026-05-05 05:58 22.64199 113.80651 27 ft 3 kts 262°
2026-05-05 05:58 22.64196 113.80636 27 ft 0 kts 255°
2026-05-05 05:59 22.64195 113.80633 27 ft 0 kts 254°
2026-05-05 05:59 22.64192 113.80624 27 ft 1 kts 249°
2026-05-05 05:59 22.64189 113.80617 27 ft 2 kts 246°
2026-05-05 06:00 22.64184 113.80605 27 ft 2 kts 246°
2026-05-05 06:00 22.64175 113.80582 27 ft 3 kts 246°
2026-05-05 06:00 22.64161 113.80552 27 ft 4 kts 243°
2026-05-05 06:00 22.64144 113.80516 27 ft 5 kts 243°
2026-05-05 06:01 22.64124 113.80473 27 ft 6 kts 243°
2026-05-05 06:01 22.64102 113.80425 27 ft 7 kts 243°
2026-05-05 06:01 22.64076 113.80372 27 ft 8 kts 243°
2026-05-05 06:01 22.64049 113.80315 27 ft 8 kts 244°
2026-05-05 06:02 22.64052 113.80253 27 ft 8 kts 297°
2026-05-05 06:02 22.64071 113.80216 27 ft 5 kts 300°
2026-05-05 06:02 22.64092 113.80177 27 ft 6 kts 301°
2026-05-05 06:02 22.64111 113.80135 27 ft 2 kts 285°
2026-05-05 06:03 22.64111 113.80109 27 ft 3 kts 263°
2026-05-05 06:03 22.64112 113.80078 27 ft 4 kts 281°
2026-05-05 06:03 22.64124 113.80043 27 ft 5 kts 292°
2026-05-05 06:03 22.64128 113.80032 27 ft 1 kts 290°
2026-05-05 06:04 22.64131 113.80022 27 ft 1 kts 289°
2026-05-05 06:04 22.64137 113.80005 27 ft 2 kts 289°
2026-05-05 06:04 22.64140 113.79994 27 ft 0 kts 288°
2026-05-05 06:04 22.64142 113.79986 27 ft 1 kts 287°
2026-05-05 06:05 22.64145 113.79979 27 ft 0 kts 287°
2026-05-05 06:05 22.64146 113.79974 27 ft 0 kts 287°